Location: Chimay
(50.0486°N, 4.3171°E)
Time: 15:04:16
(UTC+00:00)

Meteor 1-13 Rocket - Pass Details

Date: 08 August 2020
Orbit: 830 x 913 km, 81.3° (Epoch: 19 September)

Event Time Altitude Azimuth Distance (km) Brightness Sun altitude
Rises 22:33:46 0° 346° (NNW) 3,404 8.9 -22.1°
Reaches altitude 10° 22:36:12 10° 344° (NNW) 2,458 7.8 -22.3°
Maximum altitude 22:41:44 71° 262° (W) 880 4.2 -22.5°
Enters shadow 22:43:15 47° 195° (SSW) 1,084 4.4 -22.6°
